Dewpoint
46 45 45 42 40 40 40 40 40 41 41 41 41 42 42 41 42 42 41 40 40 41 41 40 39 39 38 38 39 39 39 40 39 39 39 40 42 42 42 45 46 48 48
45 45 46 44 41 41 41 41 41 40 40 39 40 40 40 40 41 40 39 39 39 39 39 38 38 35 36 37 37 38 38 39 38 37 38 39 39 41 43 44 45 44 46
45 43 45 44 42 42 41 41 40 39 38 39 38 38 38 39 39 40 39 38 38 38 38 37 36 35 35 35 36 37 36 36 37 37 36 37 38 40 42 43 44 45 44
42 42 43 43 41 41 41 41 41 40 38 38 38 38 39 37 37 37 36 37 36 36 37 36 36 35 34 35 34 35 34 35 35 36 35 36 37 38 40 41 40 42 41
38 38 39 40 40 39 40 40 41 41 39 39 38 38 38 36 34 36 35 36 36 35 35 33 35 35 36 35 34 34 35 34 33 33 33 34 35 35 36 38 37 38 39
37 37 37 38 37 38 38 38 38 38 38 39 39 38 38 33 33 34 34 33 33 32 32 33 33 35 35 35 35 35 34 32 31 32 32 32 33 34 35 36 37 35 35
33 30 29 29 30 32 32 32 33 35 38 39 39 40 40 38 35 35 34 32 32 32 32 31 31 31 34 33 34 34 33 33 31 32 33 33 32 33 34 33 34 35 35
24 22 22 23 22 24 25 26 29 31 32 35 37 38 38 38 37 35 34 33 32 32 32 32 33 33 34 34 33 33 31 31 32 33 34 34 34 34 34 33 34 35 36
20 21 21 22 22 23 24 26 28 29 30 31 31 34 37 37 37 36 33 33 31 31 31 32 32 33 32 33 32 32 29 31 32 34 34 34 34 35 35 36 34 34 35
21 22 21 22 22 23 24 25 26 27 26 29 28 31 33 35 35 36 35 34 33 33 31 31 32 32 31 32 32 31 30 30 32 31 33 33 34 35 34 36 36 33 35
18 20 20 21 22 21 22 23 24 24 25 30 30 32 32 33 35 36 36 35 35 33 33 33 33 32 32 32 32 31 30 33 33 33 35 34 35 34 36 36 36 36 34
16 16 17 19 16 15 21 22 22 23 26 29 30 31 34 33 33 35 37 34 34 34 35 35 36 33 32 32 33 31 31 32 35 33 33 33 34 34 35 35 35 36 36
13 12 13 16 15 17 20 21 24 23 26 27 29 30 31 33 34 34 35 33 33 33 36 35 34 33 32 31 31 31 30 35 33 32 32 33 34 35 34 34 35 35 35
11 11 12 14 17 19 18 19 20 22 23 24 26 28 30 29 31 35 34 35 33 33 33 35 34 33 31 32 33 34 35 34 33 32 32 33 34 33 33 34 34 34 34
11 12 13 13 15 19 16 18 19 21 21 23 24 28 28 28 26 33 34 35 35 34 34 35 34 34 34 34 34 34 34 34 33 33 32 32 33 34 34 35 35 34 34
13 12 14 15 16 16 18 22 18 18 18 18 20 24 27 27 27 32 33 33 33 32 32 33 33 33 33 34 33 32 32 31 31 31 32 32 31 32 32 34 35 34 34
15 16 15 16 16 16 17 19 20 21 17 17 18 19 21 25 27 29 33 33 31 31 31 31 33 33 33 31 31 31 31 31 33 30 30 30 31 31 31 32 33 33 34
17 16 17 18 19 19 17 17 20 20 20 20 18 18 19 24 24 27 31 30 30 30 32 33 33 33 31 29 30 31 31 32 32 31 31 31 31 31 31 32 33 33 33
15 16 17 16 17 17 16 15 15 16 17 18 18 18 20 19 21 26 27 30 29 28 27 26 25 24 26 26 29 31 32 32 33 33 31 31 32 31 31 31 32 32 33
16 15 16 14 15 13 13 13 13 13 15 16 17 18 19 16 20 23 25 27 28 29 29 28 28 27 26 26 29 32 32 33 31 31 33 33 32 31 31 31 32 33 32
15 15 13 13 12 11 11 11 10 11 12 12 14 17 20 15 18 20 22 24 26 26 27 28 29 28 27 27 25 27 26 31 28 28 31 33 32 31 30 31 32 32 32
13 13 13 12 11 11 10 9 10 9 9 10 13 13 16 14 15 18 19 23 26 24 25 25 25 26 25 25 25 29 27 28 29 27 28 29 31 31 30 31 31 33 33
13 13 13 11 11 10 10 9 9 9 8 8 10 12 15 15 16 17 19 22 22 23 23 23 24 23 24 27 27 26 25 24 26 26 26 26 27 30 30 29 30 31 33
13 13 12 11 11 10 10 10 9 7 6 8 10 13 14 13 16 17 19 22 22 23 23 24 24 23 23 27 28 26 24 26 26 25 26 25 26 27 29 29 29 31 33
13 13 13 12 11 11 11 9 9 9 8 8 9 9 10 11 13 15 16 20 20 20 20 22 23 24 24 26 27 25 24 22 23 21 23 24 24 25 26 29 29 30 32
10 9 12 12 12 12 11 10 9 8 8 8 8 8 9 9 12 13 13 15 18 17 18 20 22 23 22 22 25 25 21 20 20 18 20 22 23 24 27 29 29 30 31
Lifted_Index
8 8 9 10 11 12 12 12 12 12 12 12 11 11 11 11 11 11 11 11 11 10 10 10 10 10 10 10 10 10 9 9 9 8 8 7 7 6 6 5 4 3 2
8 8 8 9 11 12 12 12 12 12 12 12 11 11 11 11 10 10 10 10 10 10 9 9 9 10 10 10 10 9 9 8 8 8 7 7 7 7 6 5 4 3 3
8 8 8 9 10 11 11 11 11 11 11 11 11 11 11 10 10 10 10 10 10 9 9 9 9 10 10 10 10 9 8 8 8 7 7 7 7 7 6 5 4 3 4
9 9 9 9 10 10 10 10 10 10 10 11 11 10 10 10 10 9 9 9 10 10 9 9 10 10 11 11 10 9 8 8 8 7 7 7 7 7 6 5 4 4 4
10 10 10 10 10 10 10 10 10 9 9 9 9 9 9 9 9 9 9 9 10 10 10 10 10 11 10 10 10 9 8 8 7 7 7 6 6 6 6 6 5 4 4
11 10 10 10 10 11 11 10 10 9 9 8 8 8 8 8 8 8 8 8 9 10 10 10 10 10 10 10 9 9 8 8 7 7 7 6 6 6 6 6 5 5 4
12 12 12 12 12 12 12 12 11 10 9 9 8 8 7 7 7 7 7 8 9 10 10 10 10 10 9 9 9 9 8 8 8 7 7 7 7 7 7 7 6 6 5
15 15 15 14 14 14 13 13 12 11 11 10 9 8 8 7 7 7 7 7 7 8 9 9 9 9 9 9 8 8 8 8 8 8 8 7 7 8 8 7 6 6 5
17 16 16 15 15 14 14 13 13 12 12 11 10 10 9 8 8 7 6 6 6 6 7 8 8 8 8 8 7 7 7 7 8 8 8 8 8 8 8 7 6 5 5
17 16 16 15 15 14 14 13 13 13 12 12 11 11 10 9 7 6 5 4 4 5 6 7 7 7 7 7 7 6 6 7 7 7 7 7 7 7 7 7 6 5 5
16 16 15 15 14 14 14 14 14 13 12 12 11 10 9 8 7 6 5 4 4 5 5 6 6 6 6 6 6 6 6 7 7 6 6 6 6 7 7 6 6 5 5
15 15 15 14 14 14 14 14 14 13 12 11 10 9 8 7 6 6 5 5 5 5 5 6 6 6 6 6 6 6 6 6 6 6 6 6 6 6 6 6 6 5 5
15 15 15 15 15 14 14 14 13 12 11 10 9 8 7 6 6 6 5 5 5 6 6 6 7 7 7 7 6 6 6 6 6 5 5 5 6 6 6 6 6 5 5
15 15 15 15 15 15 14 13 12 12 11 10 9 8 7 6 6 5 5 5 6 6 7 7 7 7 7 7 7 6 6 6 6 5 5 6 6 6 6 6 6 5 5
15 15 15 15 15 14 14 13 12 12 11 11 10 9 7 6 5 5 5 5 6 6 7 7 7 7 7 7 7 6 6 6 6 6 6 6 6 6 6 6 6 5 5
15 15 16 16 15 14 13 13 12 12 12 11 10 9 8 7 5 5 5 5 6 6 6 6 6 6 7 7 7 7 6 6 6 6 6 6 5 5 6 6 6 6 5
16 16 16 16 15 15 14 13 12 12 12 11 10 9 9 7 6 5 5 5 6 6 6 6 6 6 6 7 7 7 7 7 6 6 6 6 6 6 5 6 6 6 5
16 16 16 16 15 15 14 13 13 12 12 11 10 10 9 8 7 5 5 5 6 6 6 6 6 7 7 7 8 8 8 7 7 6 6 6 6 6 6 6 6 6 6
17 17 17 16 15 15 14 14 14 13 12 11 11 10 9 9 8 6 6 6 6 6 7 7 7 8 8 8 8 9 8 8 8 7 7 6 6 6 6 6 6 6 6
17 17 16 16 15 15 15 15 14 14 13 12 11 10 10 9 8 7 7 7 7 7 7 7 8 8 8 9 9 9 9 9 9 8 8 7 7 7 7 7 7 7 7
17 17 16 16 15 15 15 15 15 14 13 13 12 11 10 10 9 8 8 8 8 8 8 8 8 8 9 9 9 9 9 9 9 9 9 8 8 7 7 7 7 7 7
17 16 16 16 15 15 15 15 15 15 14 13 13 12 11 11 10 9 9 9 8 9 9 9 9 9 9 9 9 10 10 10 10 10 10 10 9 8 8 7 7 8 8
17 16 15 15 14 14 15 15 15 15 15 14 13 13 12 11 11 10 9 9 9 9 9 10 10 9 9 9 9 10 10 10 11 11 11 11 10 9 8 7 7 7 8
17 16 15 14 13 13 13 14 15 15 15 15 14 14 13 12 12 11 10 9 9 9 9 10 10 10 10 10 10 10 10 11 11 11 11 11 11 10 9 8 7 8 8
17 16 14 13 12 12 12 13 14 15 15 15 15 14 14 13 13 12 12 11 10 10 10 10 10 10 10 10 10 11 11 11 12 12 12 11 11 11 10 8 8 8 8
17 16 14 12 12 12 12 12 13 14 15 15 15 15 15 14 13 13 12 12 11 10 10 10 10 10 10 11 11 11 11 12 12 12 12 12 11 11 10 9 8 8 8